985  
ASUS44 KCRP 202110  
HRRCRP  
 
SOUTH TEXAS REGIONAL WEATHER ROUNDUP  
NATIONAL WEATHER SERVICE CORPUS CHRISTI TX  
400 PM CDT MON AUG 20 2018  
 
TXZ229>244-202200-   
..CORPUS CHRISTI AREA OBSERVATIONS
 
 
 
CITY SKY/WX TMP DP RH WIND PRES REMARKS  
CORPUS CHRISTI MOSUNNY 94 76 55 SE14G22 29.95F HX 106  
NAS CORPUS CHR MOSUNNY 93 79 63 SE21G28 29.95F HX 110  
ROCKPORT SUNNY 90 75 61 S10G22 29.96F HX 100  
KINGSVILLE ARP PTSUNNY 97 76 50 E15 29.93F HAZE HX 111  
ALICE MOSUNNY 97 72 44 SE15 29.92F HX 105  

 
   
..VICTORIA AREA OBSERVATIONS
 
 
 
CITY SKY/WX TMP DP RH WIND PRES REMARKS  
PORT LAVACA PTSUNNY 96 73 48 SW13G22 29.97F HX 105  
VICTORIA CLOUDY 97 67 37 S10 29.95F HX 101  
BEEVILLE FAIR 94 72 47 SE13G20 29.94F HX 102  
PLEASANTON MOSUNNY 102 61 26 SE5 29.93F HX 103  
SAN ANTONIO MOSUNNY 97 66 36 S9 29.96F HX 100  

 
   
..LAREDO AREA OBSERVATIONS
 
 
 
CITY SKY/WX TMP DP RH WIND PRES REMARKS  
LAREDO NOT AVBL  
COTULLA MOSUNNY 97 71 42 NE6 29.92F HX 104  
DEL RIO MOSUNNY 98 70 40 SE7 29.93F HX 105  
MCALLEN MOSUNNY 102 72 37 SE12G23 29.91F HX 112  
HEBBRONVILLE MOSUNNY 98 62 30 S14 29.93F HX 98  

 
   
..OTHER TEXAS OBSERVATIONS
 
 
 
CITY SKY/WX TMP DP RH WIND PRES REMARKS  
BROWNSVILLE FAIR 97 72 44 S23G30 29.95F HX 105  
HOUSTON FAIR 95 76 53 S6 29.93F HX 108  
COL. STATION MOSUNNY 99 67 35 MISG 29.93F HX 103  
AUSTIN MOSUNNY 100 66 32 VRB5 29.94F HX 104  
WACO MOSUNNY 100 69 36 NW12 29.94F HX 106  
FORT WORTH MOSUNNY 93 62 35 NW12 29.95F HX 93  
WICHITA FALLS SUNNY 89 61 38 N8G20 30.01F  
LUBBOCK MOSUNNY 86 54 33 E8 30.15F  
EL PASO MOSUNNY 95 55 26 SE12 30.09F HX 93  

 
   
..MARINE OBSERVATIONS
 
 
 
STATION/POSITION TIME SKY/WX TEMP WIND PRES VSBY WAVE SWELL  
AIR SEA DIR/SP/G HT/PER HT/PER  
(UTC) (F) (DEG/KT/KT) (MB) (MI) (FT/S) (FT/S)  
PORT ARANSAS 2100 84 86 140/ 12/ 13 1014.6F  
BUOY 90 E PORT A 2050 86 87 180/ 8/ 10 1015.5F 3/ 6 3/ 6  
BUOY 200 E PT IS 2050 86 87 160/ 10/ 12 1016.3F 3/ 6 3/ 6  
BUOY 15 E GALVES 2100 86 87 200/ 14/ 16 1015.7  

 
 
 
CLICK HERE TO GO TO PREVIOUS BULLETINS.

The Nexlab TX Page Main Text Page